Regional Weather Roundup
Issued by NWS

Home | Current Version | Previous Version | Graphics & Text | Print | Product List | Glossary On
Versions: 1 2 3 4 5 6 7 8 9 10 11 12 13 14 15 16 17 18 19 20 21 22 23 24 25 26 27 28 29 30 31 32 33 34 35 36 37 38 39 40 41 42 43 44 45 46 47 48 49 50
791
ASUS43 KLSX 200307
RWRMO

WEATHER SUMMARY FOR MISSOURI
NATIONAL WEATHER SERVICE SPRINGFIELD MO
1000 PM CDT TUE SEP 19 2017

NOTE: "FAIR" INDICATES FEW OR NO CLOUDS BELOW 12,000 FEET WITH NO
       SIGNIFICANT WEATHER AND/OR OBSTRUCTIONS TO VISIBILITY.
       CURRENT SKY AND/OR WEATHER CONDITIONS ARE NOT AVAILABLE FOR
       CHILLICOTHE AND FARMINGTON.

MOZ001>031-035>038-043-044-053-054-200400-
...NORTHERN AND WESTERN MISSOURI...

CITY           SKY/WX    TMP DP  RH WIND       PRES   REMARKS
KANSAS CTY INT PTCLDY    79  69  71 S18G29    29.73R
KANSAS C DTWN  CLEAR     82  69  64 S10       29.73R
LEE`S SUMMIT   CLEAR     79  69  71 S18G24    29.75R
ST JOSEPH      CLEAR     78  71  79 S10       29.70R
CHILLICOTHE      N/A     79  70  74 SE8       29.75F
KIRKSVILLE     CLEAR     74  67  78 SE9       29.81S

$$
MOZ066>068-077>081-088>096-101>105-200400-
...SOUTHWEST MISSOURI...

CITY           SKY/WX    TMP DP  RH WIND       PRES   REMARKS
SPRINGFIELD    CLEAR     76  66  71 S9        29.86R
JOPLIN         CLEAR     78  70  76 S13       29.82R
BRANSON        PTCLDY    77  66  69 S7        29.90R

$$
MOZ032>034-039>042-045>050-055>058-069>072-200400-
...CENTRAL MISSOURI...

CITY           SKY/WX    TMP DP  RH WIND       PRES   REMARKS
COLUMBIA       CLEAR     74  67  78 SE8       29.83S
JEFFERSON CITY CLEAR     76  66  71 E8        29.82S
ROLLA          CLEAR     75  66  73 SE8       29.88R
SEDALIA        CLEAR     76  70  82 SE9       29.81S
WHITEMAN AFB   PTCLDY    78  74  88 S13       29.77S
WARRENSBURG    CLEAR     73  68  83 SE10      29.77S
OSAGE BEACH    CLEAR     76  67  73 S3        29.85R

$$
MOZ051-052-059>065-200400-
...EAST CENTRAL MISSOURI...

CITY           SKY/WX    TMP DP  RH WIND       PRES   REMARKS
ST LOUIS INTL  CLEAR     81  68  64 SE9       29.88R
SPIRIT OF STL  CLEAR     78  69  73 SE6       29.85S
ST CHARLES     CLEAR     73  67  81 E5        29.86R

$$
MOZ072>076-082>087-097>100-106>115-200400-
...SOUTH CENTRAL AND SOUTHEAST MISSOURI...

CITY           SKY/WX    TMP DP  RH WIND       PRES   REMARKS
CAPE GIRARDEAU CLEAR     76  70  82 SE8       29.89R
FARMINGTON     CLEAR     74  67  78 S6        29.91S
POPLAR BLUFF   CLEAR     73  69  87 CALM      29.88R
WEST PLAINS    CLEAR     77  67  71 S6        29.92R

$$



USA.gov is the U.S. government's official web portal to all federal, state and local government web resources and services.